sat.trackr.live / text

‹ back to catalog

STARLINK-4647

NORAD 53608 · 2022-104W

PAYLOAD ACTIVE UNKNOWN

§ Identity

Operator
Country
US
Launch date
2022-08-28
Launch site
AFETR
Launch vehicle
Mass (kg)
RCS (m²)

Purposes: comms

External: N2YO · Heavens-Above · Gunter

§ Orbital elements

Epoch: 2026-09-20T02:44:33.427392Z

Period
93.85 min
Inclination
53.1588°
Eccentricity
0.0001352
Mean motion
15.34385455 rev/d
Perigee alt
461.8 km
Apogee alt
463.7 km
Semi-major
6,840.9 km
B*
1.8719e-5
RAAN
69.6413°
Arg perigee
88.8800°
Mean anomaly
271.2357°
Rev number
22,514

§ Raw data

STARLINK-46471 53608U 22104W   26263.11427578  .00000256  00000+0  18719-4 0  99972 53608  53.1588  69.6413 0001352  88.8800 271.2357 15.34385455225140

JSON: /api/v1/satellites/53608 · /tle

For live sub-satellite position, see the globe view (requires WebGL).

§ Visibility from observer

Set your observer location to see the next 7 days of passes ≥ 10°. The values pass through the URL so the page stays shareable.

No JS? Fill the form by hand. The geolocation button needs JavaScript.